Regional Weather Roundup
Issued by NWS

Home | Current Version | Previous Version | Graphics & Text | Print | Product List | Glossary On
Versions: 1 2 3 4 5 6 7 8 9 10 11 12 13 14 15 16 17 18 19 20 21 22 23 24 25 26 27 28
000
ASUS45 KCYS 151510
RWRWY

WYOMING REGIONAL WEATHER ROUNDUP
NATIONAL WEATHER SERVICE CHEYENNE WY
900 AM MDT TUE APR 15 2014

NOTE:  "FAIR" INDICATES FEW OR NO CLOUDS BELOW 12,000 FEET
WITH NO SIGNIFICANT WEATHER AND/OR OBSTRUCTIONS TO VISIBILITY.

WYZ001-151600-
YELLOWSTONE NATIONAL PARK

CITY           SKY/WX    TMP DP  RH WIND       PRES   REMARKS
LK YELLOWSTONE   N/A     27   9  46 CALM      29.94F
W YELLOWSTONE  NOT AVBL

$$
WYZ002>013-054>058-071-098>099-151600-
NORTHERN WYOMING

CITY           SKY/WX    TMP DP  RH WIND       PRES   REMARKS
JACKSON        PTSUNNY   36  14  41 MISG      29.96F
CODY           PTSUNNY   46  12  25 W15G22    29.81S
GREYBULL       CLOUDY    34  27  75 E6        29.84F WCI  29
WORLAND        CLOUDY    34  26  72 S3        29.83F
SHERIDAN       CLOUDY    42  29  59 SW5       29.74F
BUFFALO        CLOUDY    46  19  34 W3        29.78F
GILLETTE       CLOUDY    44  21  40 SW17      29.77S
HULETT         FAIR      45  21  39 SW10      29.76
NEWCASTLE      FAIR      36  19  51 SE7       29.83  WCI  30

$$
WYZ014>020-022>026-101>103-151600-
CENTRAL WYOMING

CITY           SKY/WX    TMP DP  RH WIND       PRES   REMARKS
BIG PINEY      MOSUNNY   31  16  54 VRB3      30.01F
PINEDALE       MOSUNNY   28  18  64 W6        30.01S WCI  22
DUBOIS         FAIR      39   9  28 N16G23    29.87F WCI  30
LANDER         PTSUNNY   36  24  62 SE5       29.86F WCI  32
RIVERTON       PTSUNNY   41  16  36 SW9       29.88F
CASPER         CLOUDY    38  18  44 SW21      29.88S WCI  28
DOUGLAS        PTSUNNY   40  25  55 N6        29.86F

$$
WYZ021-027>030-104>119-151600-
SOUTHERN WYOMING

CITY           SKY/WX    TMP DP  RH WIND       PRES   REMARKS
EVANSTON       PTSUNNY   35  13  40 SW13      30.04F WCI  26
KEMMERER       PTSUNNY   36  12  38 W14       30.02  WCI  27
FORT BRIDGER   FAIR      41  15  34 W7        30.04F
ROCK SPRINGS   PTSUNNY   41   4  21 VRB5      30.01F
DIXON          FAIR      33  22  62 E5        30.10F WCI  29
RAWLINS        CLOUDY    37  14  38 W20G26    29.98F WCI  27
SARATOGA       CLOUDY    36  19  51 SE9       30.03S WCI  29
LARAMIE        PTSUNNY   34  19  54 SW25      29.94S WCI  21
CHEYENNE       PTSUNNY   41  18  39 W23       29.92S
TORRINGTON     SUNNY     43  25  49 W7        29.87F
PINE BLUFFS    FAIR      43  23  45 S9        29.93F

$$



USA.gov is the U.S. government's official web portal to all federal, state and local government web resources and services.